GAF444 NFFN-NZOH

Flight info

Callsign GAF444
Flight time 3h 25m
Altitude 31000
Route ECHO MI DCT AGTOS DCT AGEDU/N0417F300 DCT GOBUK H310 AP H313 OH
Aircraft A400/H-SDE2E3FGHIJ4J5M1RWXY/LB1D1

Departure

Time 2026-04-30 17:53
Airport Nadi International Airport (NFFN)

Arrival

Time 2026-04-30 21:18
Airport RNZAF Base Ohakea (NZOH)
Time Latitude Longitude Altitude Speed Heading
2026-04-30 17:39 -17.75267 177.45269 29 ft 0 kts 194°
2026-04-30 17:48 -17.75193 177.45300 51 ft 0 kts 274°
2026-04-30 17:49 -17.75135 177.45200 53 ft 7 kts 327°
2026-04-30 17:50 -17.75039 177.44905 54 ft 11 kts 283°
2026-04-30 17:51 -17.75058 177.44689 52 ft 0 kts 220°
2026-04-30 17:52 -17.75672 177.44194 57 ft 144 kts 218°
2026-04-30 17:53 -17.81614 177.39091 2659 ft 264 kts 216°
2026-04-30 17:54 -17.87270 177.34700 6003 ft 277 kts 216°
2026-04-30 17:55 -17.94440 177.32011 9683 ft 283 kts 185°
2026-04-30 17:56 -18.02962 177.31447 11772 ft 330 kts 184°
2026-04-30 17:57 -18.10001 177.30906 13562 ft 344 kts 186°
2026-04-30 17:58 -18.17248 177.30301 15143 ft 356 kts 187°
2026-04-30 17:59 -18.27361 177.29456 17270 ft 372 kts 186°
2026-04-30 18:00 -18.37837 177.28587 19291 ft 384 kts 187°
2026-04-30 18:00 -18.45912 177.27916 20767 ft 391 kts 188°
2026-04-30 18:01 -18.51386 177.27461 21718 ft 396 kts 188°
2026-04-30 18:02 -18.59707 177.26767 22994 ft 403 kts 188°
2026-04-30 18:02 -18.68145 177.26064 24010 ft 410 kts 188°
2026-04-30 18:03 -18.76735 177.25347 24863 ft 415 kts 189°
2026-04-30 18:04 -18.85432 177.24621 25646 ft 419 kts 189°
2026-04-30 18:05 -18.97140 177.23642 26564 ft 424 kts 190°
2026-04-30 18:06 -19.08951 177.22653 27339 ft 429 kts 190°
2026-04-30 18:07 -19.20851 177.21658 28302 ft 427 kts 191°
2026-04-30 18:08 -19.29684 177.20919 28950 ft 426 kts 191°
2026-04-30 18:10 -19.53641 177.21116 28957 ft 432 kts 186°
2026-04-30 18:11 -19.74682 177.21469 28961 ft 432 kts 186°
2026-04-30 18:13 -19.89631 177.21720 28961 ft 429 kts 186°
2026-04-30 18:14 -20.04568 177.21968 28970 ft 429 kts 186°
2026-04-30 18:15 -20.22441 177.22269 28970 ft 426 kts 186°
2026-04-30 18:16 -20.34276 177.22466 28976 ft 426 kts 186°
2026-04-30 18:17 -20.40204 177.22565 28976 ft 426 kts 186°
2026-04-30 18:18 -20.49094 177.22715 28993 ft 425 kts 186°
2026-04-30 18:18 -20.54963 177.22815 28982 ft 424 kts 186°
2026-04-30 18:19 -20.60863 177.22914 28988 ft 424 kts 186°
2026-04-30 18:19 -20.66771 177.23013 28998 ft 424 kts 186°
2026-04-30 18:20 -20.72676 177.23112 28990 ft 424 kts 186°
2026-04-30 18:20 -20.78572 177.23211 29008 ft 424 kts 186°
2026-04-30 18:21 -20.84475 177.23312 28988 ft 424 kts 186°
2026-04-30 18:21 -20.90377 177.23412 28998 ft 424 kts 186°
2026-04-30 18:22 -20.96241 177.23511 28997 ft 424 kts 186°
2026-04-30 18:22 -21.05101 177.23661 28998 ft 424 kts 186°
2026-04-30 18:23 -21.11006 177.23761 29000 ft 424 kts 186°
2026-04-30 18:23 -21.16912 177.23861 29003 ft 425 kts 186°
2026-04-30 18:24 -21.25795 177.24011 29006 ft 425 kts 186°
2026-04-30 18:25 -21.31710 177.24112 29005 ft 425 kts 186°
2026-04-30 18:25 -21.40586 177.24263 29011 ft 425 kts 186°
2026-04-30 18:26 -21.49435 177.24414 29011 ft 425 kts 186°
2026-04-30 18:27 -21.58328 177.24565 29014 ft 425 kts 186°
2026-04-30 18:28 -21.67211 177.24717 29014 ft 425 kts 186°
2026-04-30 18:28 -21.76086 177.24869 29014 ft 425 kts 186°
2026-04-30 18:29 -21.87898 177.25071 29022 ft 426 kts 186°
2026-04-30 18:30 -21.99744 177.25275 29025 ft 426 kts 186°
2026-04-30 18:31 -22.08610 177.25427 29025 ft 425 kts 186°
2026-04-30 18:32 -22.17501 177.25580 29033 ft 426 kts 186°
2026-04-30 18:33 -22.26404 177.25733 29033 ft 426 kts 186°
2026-04-30 18:33 -22.35306 177.25886 29036 ft 426 kts 186°
2026-04-30 18:34 -22.44168 177.26040 29056 ft 426 kts 186°
2026-04-30 18:35 -22.50102 177.26142 29042 ft 426 kts 186°
2026-04-30 18:35 -22.56026 177.26245 29041 ft 426 kts 186°
2026-04-30 18:36 -22.64922 177.26398 29044 ft 426 kts 186°
2026-04-30 18:37 -22.73812 177.26553 29049 ft 426 kts 186°
2026-04-30 18:37 -22.79706 177.26655 29050 ft 426 kts 186°
2026-04-30 18:38 -22.85636 177.26758 29055 ft 426 kts 186°
2026-04-30 18:38 -22.91560 177.26861 29055 ft 426 kts 186°
2026-04-30 18:39 -22.97485 177.26964 29060 ft 426 kts 186°
2026-04-30 18:39 -23.03412 177.27067 29060 ft 426 kts 186°
2026-04-30 18:40 -23.09311 177.27170 29082 ft 426 kts 186°
2026-04-30 18:40 -23.15233 177.27273 29062 ft 425 kts 186°
2026-04-30 18:41 -23.20163 177.27360 29064 ft 425 kts 186°
2026-04-30 18:41 -23.26079 177.27463 29067 ft 425 kts 186°
2026-04-30 18:42 -23.32004 177.27566 29069 ft 425 kts 186°
2026-04-30 18:42 -23.40855 177.27721 29090 ft 425 kts 186°
2026-04-30 18:45 -23.73372 177.28292 29099 ft 425 kts 186°
2026-04-30 18:46 -23.79282 177.28396 29082 ft 425 kts 186°
2026-04-30 18:46 -23.85204 177.28501 29082 ft 425 kts 186°
2026-04-30 18:47 -23.91119 177.28605 29087 ft 425 kts 186°
2026-04-30 18:47 -23.97000 177.28709 29087 ft 425 kts 186°
2026-04-30 18:48 -24.02917 177.28814 29088 ft 425 kts 186°
2026-04-30 18:48 -24.08839 177.28918 29092 ft 426 kts 186°
2026-04-30 18:49 -24.14764 177.29023 29094 ft 426 kts 186°
2026-04-30 18:49 -24.20692 177.29128 29094 ft 426 kts 186°
2026-04-30 18:50 -24.26623 177.29234 29097 ft 426 kts 186°
2026-04-30 18:50 -24.32559 177.29339 29095 ft 426 kts 186°
2026-04-30 18:51 -24.38452 177.29444 29104 ft 426 kts 186°
2026-04-30 18:51 -24.44391 177.29549 29100 ft 426 kts 186°
2026-04-30 18:52 -24.50326 177.29655 29111 ft 426 kts 186°
2026-04-30 18:52 -24.56268 177.29761 29108 ft 426 kts 186°
2026-04-30 18:53 -24.62200 177.29867 29112 ft 426 kts 186°
2026-04-30 18:53 -24.68096 177.29972 29113 ft 426 kts 186°
2026-04-30 18:54 -24.74037 177.30079 29112 ft 426 kts 186°
2026-04-30 18:54 -24.79972 177.30185 29115 ft 426 kts 186°
2026-04-30 18:55 -24.85906 177.30291 29109 ft 426 kts 186°
2026-04-30 18:55 -24.94802 177.30451 29114 ft 426 kts 186°
2026-04-30 18:56 -25.03702 177.30611 29120 ft 426 kts 186°
2026-04-30 18:57 -25.12595 177.30771 29129 ft 426 kts 186°
2026-04-30 18:57 -25.18536 177.30877 29129 ft 426 kts 186°
2026-04-30 18:58 -25.27398 177.31037 29132 ft 426 kts 186°
2026-04-30 18:59 -25.36302 177.31198 29131 ft 426 kts 186°
2026-04-30 19:00 -25.48146 177.31412 29142 ft 426 kts 186°
2026-04-30 19:01 -25.59957 177.31626 29142 ft 426 kts 186°
2026-04-30 19:02 -25.68837 177.31788 29142 ft 425 kts 186°
2026-04-30 19:03 -25.80664 177.32003 29153 ft 425 kts 186°
2026-04-30 19:04 -25.92452 177.32217 29146 ft 425 kts 186°
2026-04-30 19:05 -26.04276 177.32433 29151 ft 424 kts 185°
2026-04-30 19:06 -26.16062 177.32649 29160 ft 425 kts 185°
2026-04-30 19:06 -26.24930 177.32812 29166 ft 425 kts 185°
2026-04-30 19:07 -26.33789 177.32972 29157 ft 424 kts 185°
2026-04-30 19:08 -26.45593 177.33191 29164 ft 424 kts 185°
2026-04-30 19:09 -26.54445 177.33354 29189 ft 424 kts 185°
2026-04-30 19:09 -26.60349 177.33463 29169 ft 424 kts 185°
2026-04-30 19:10 -26.72113 177.33680 29174 ft 424 kts 185°
2026-04-30 19:11 -26.80958 177.33844 29173 ft 424 kts 185°
2026-04-30 19:12 -26.86864 177.33953 29181 ft 424 kts 185°
2026-04-30 19:12 -26.92775 177.34063 29178 ft 424 kts 185°
2026-04-30 19:13 -27.04553 177.34282 29186 ft 424 kts 185°
2026-04-30 19:14 -27.10470 177.34392 29186 ft 424 kts 185°
2026-04-30 19:14 -27.16374 177.34502 29194 ft 424 kts 184°
2026-04-30 19:15 -27.22280 177.34612 29191 ft 424 kts 184°
2026-04-30 19:15 -27.31093 177.34777 29191 ft 424 kts 184°
2026-04-30 19:16 -27.36991 177.34887 29193 ft 424 kts 184°
2026-04-30 19:17 -27.45835 177.35053 29207 ft 424 kts 184°
2026-04-30 19:17 -27.54709 177.35218 29199 ft 426 kts 184°
2026-04-30 19:18 -27.63602 177.35386 29202 ft 426 kts 184°
2026-04-30 19:19 -27.69537 177.35498 29205 ft 426 kts 184°
2026-04-30 19:19 -27.78387 177.35665 29204 ft 426 kts 184°
2026-04-30 19:20 -27.84322 177.35777 29207 ft 426 kts 184°
2026-04-30 19:21 -27.93212 177.35944 29207 ft 426 kts 184°
2026-04-30 19:22 -28.05029 177.36168 29224 ft 426 kts 184°
2026-04-30 19:23 -28.22810 177.36505 29218 ft 426 kts 184°
2026-04-30 19:24 -28.31654 177.36673 29224 ft 425 kts 184°
2026-04-30 19:25 -28.46484 177.36956 29228 ft 426 kts 184°
2026-04-30 19:26 -28.58318 177.37183 29234 ft 426 kts 184°
2026-04-30 19:27 -28.67215 177.37353 29237 ft 425 kts 184°
2026-04-30 19:28 -28.76078 177.37524 29239 ft 424 kts 184°
2026-04-30 19:29 -28.86875 177.37731 29246 ft 424 kts 184°
2026-04-30 19:30 -28.98636 177.37957 29245 ft 424 kts 183°
2026-04-30 19:31 -29.10434 177.38185 29248 ft 424 kts 183°
2026-04-30 19:31 -29.19279 177.38356 29248 ft 424 kts 183°
2026-04-30 19:32 -29.25177 177.38471 29254 ft 424 kts 184°
2026-04-30 19:32 -29.31074 177.38585 29254 ft 423 kts 184°
2026-04-30 19:33 -29.36981 177.38700 29258 ft 423 kts 184°
2026-04-30 19:33 -29.42841 177.38813 29258 ft 423 kts 184°
2026-04-30 19:34 -29.48728 177.38928 29260 ft 423 kts 184°
2026-04-30 19:35 -29.57551 177.39101 29266 ft 421 kts 184°
2026-04-30 19:35 -29.63422 177.39215 29267 ft 421 kts 184°
2026-04-30 19:36 -29.69291 177.39330 29273 ft 421 kts 184°
2026-04-30 19:36 -29.78081 177.39501 29271 ft 421 kts 184°
2026-04-30 19:37 -29.83893 177.39615 29278 ft 420 kts 184°
2026-04-30 19:37 -29.89740 177.39731 29268 ft 419 kts 184°
2026-04-30 19:38 -29.95571 177.39845 29277 ft 419 kts 184°
2026-04-30 19:38 -30.01406 177.39959 29274 ft 419 kts 184°
2026-04-30 19:39 -30.07197 177.40073 29296 ft 419 kts 184°
2026-04-30 19:39 -30.13019 177.40188 29288 ft 418 kts 184°
2026-04-30 19:40 -30.18832 177.40303 29289 ft 417 kts 184°
2026-04-30 19:40 -30.24641 177.40418 29287 ft 417 kts 184°
2026-04-30 19:41 -30.30458 177.40533 29290 ft 417 kts 184°
2026-04-30 19:41 -30.36231 177.40647 29296 ft 417 kts 184°
2026-04-30 19:42 -30.42035 177.40762 29296 ft 417 kts 184°
2026-04-30 19:42 -30.47844 177.40878 29298 ft 416 kts 184°
2026-04-30 19:43 -30.53634 177.40993 29303 ft 416 kts 184°
2026-04-30 19:44 -30.62298 177.41165 29308 ft 416 kts 184°
2026-04-30 19:44 -30.68097 177.41280 29310 ft 416 kts 184°
2026-04-30 19:45 -30.73897 177.41396 29309 ft 416 kts 184°
2026-04-30 19:45 -30.79698 177.41512 29317 ft 416 kts 184°
2026-04-30 19:46 -30.85458 177.41627 29317 ft 416 kts 184°
2026-04-30 19:46 -30.91255 177.41743 29314 ft 416 kts 184°
2026-04-30 19:47 -30.97056 177.41860 29314 ft 416 kts 184°
2026-04-30 19:47 -31.02834 177.41977 29316 ft 415 kts 184°
2026-04-30 19:48 -31.08609 177.42093 29321 ft 415 kts 184°
2026-04-30 19:48 -31.14388 177.42209 29316 ft 415 kts 184°
2026-04-30 19:49 -31.20129 177.42324 29321 ft 415 kts 184°
2026-04-30 19:49 -31.28789 177.42499 29332 ft 414 kts 184°
2026-04-30 19:50 -31.34564 177.42616 29329 ft 414 kts 184°
2026-04-30 19:50 -31.40338 177.42733 29335 ft 414 kts 184°
2026-04-30 19:51 -31.46069 177.42849 29334 ft 414 kts 184°
2026-04-30 19:51 -31.51840 177.42966 29343 ft 414 kts 185°
2026-04-30 19:52 -31.57605 177.43084 29338 ft 413 kts 185°
2026-04-30 19:52 -31.63358 177.43200 29345 ft 413 kts 185°
2026-04-30 19:53 -31.69068 177.43316 29342 ft 413 kts 185°
2026-04-30 19:53 -31.74817 177.43433 29346 ft 413 kts 185°
2026-04-30 19:54 -31.80566 177.43552 29352 ft 411 kts 185°
2026-04-30 19:54 -31.86289 177.43670 29346 ft 410 kts 185°
2026-04-30 19:55 -31.91994 177.43786 29348 ft 410 kts 185°
2026-04-30 19:55 -31.97696 177.43902 29359 ft 410 kts 185°
2026-04-30 19:56 -32.03392 177.44018 29354 ft 410 kts 185°
2026-04-30 19:56 -32.09056 177.44135 29360 ft 409 kts 186°
2026-04-30 19:57 -32.14745 177.44253 29361 ft 408 kts 186°
2026-04-30 19:57 -32.20435 177.44369 29362 ft 408 kts 186°
2026-04-30 19:58 -32.26121 177.44486 29365 ft 408 kts 186°
2026-04-30 19:58 -32.31762 177.44602 29367 ft 408 kts 186°
2026-04-30 19:59 -32.37472 177.44719 29370 ft 410 kts 185°
2026-04-30 20:00 -32.46050 177.44897 29375 ft 411 kts 185°
2026-04-30 20:00 -32.51767 177.45016 29380 ft 411 kts 185°
2026-04-30 20:01 -32.60309 177.45194 29394 ft 411 kts 185°
2026-04-30 20:01 -32.66056 177.45311 29379 ft 414 kts 185°
2026-04-30 20:02 -32.74715 177.45493 29388 ft 414 kts 185°
2026-04-30 20:03 -32.83366 177.45674 29391 ft 414 kts 185°
2026-04-30 20:03 -32.89096 177.45795 29395 ft 413 kts 186°
2026-04-30 20:04 -32.94828 177.45917 29391 ft 410 kts 186°
2026-04-30 20:05 -33.03399 177.46095 29402 ft 410 kts 186°
2026-04-30 20:05 -33.11974 177.46274 29398 ft 410 kts 186°
2026-04-30 20:06 -33.17630 177.46395 29403 ft 407 kts 186°
2026-04-30 20:06 -33.23310 177.46516 29404 ft 406 kts 186°
2026-04-30 20:07 -33.28961 177.46634 29404 ft 406 kts 186°
2026-04-30 20:08 -33.37393 177.46810 29410 ft 406 kts 186°
2026-04-30 20:08 -33.43037 177.46930 29410 ft 406 kts 186°
2026-04-30 20:09 -33.48683 177.47050 29414 ft 406 kts 186°
2026-04-30 20:09 -33.57159 177.47229 29415 ft 406 kts 186°
2026-04-30 20:10 -33.65607 177.47409 29419 ft 406 kts 186°
2026-04-30 20:11 -33.74088 177.47589 29419 ft 406 kts 185°
2026-04-30 20:11 -33.79747 177.47710 29420 ft 407 kts 185°
2026-04-30 20:12 -33.88234 177.47892 29428 ft 407 kts 185°
2026-04-30 20:13 -33.93899 177.48013 29435 ft 407 kts 184°
2026-04-30 20:13 -33.99581 177.48133 29429 ft 410 kts 184°
2026-04-30 20:14 -34.05286 177.48257 29428 ft 410 kts 184°
2026-04-30 20:14 -34.10994 177.48381 29434 ft 410 kts 184°
2026-04-30 20:15 -34.16667 177.48503 29433 ft 410 kts 184°
2026-04-30 20:15 -34.22372 177.48626 29440 ft 410 kts 183°
2026-04-30 20:16 -34.28086 177.48750 29438 ft 410 kts 183°
2026-04-30 20:16 -34.33795 177.48874 29440 ft 410 kts 183°
2026-04-30 20:17 -34.39505 177.48998 29441 ft 410 kts 183°
2026-04-30 20:17 -34.44261 177.49101 29450 ft 410 kts 183°
2026-04-30 20:18 -34.49864 177.48384 29453 ft 402 kts 197°
2026-04-30 20:18 -34.55280 177.46712 29453 ft 401 kts 199°
2026-04-30 20:19 -34.60640 177.44853 29455 ft 400 kts 200°
2026-04-30 20:19 -34.65991 177.42971 29457 ft 400 kts 200°
2026-04-30 20:20 -34.71351 177.41104 29470 ft 400 kts 199°
2026-04-30 20:20 -34.76704 177.39251 29462 ft 399 kts 199°
2026-04-30 20:21 -34.82051 177.37402 29466 ft 399 kts 199°
2026-04-30 20:21 -34.87364 177.35561 29471 ft 399 kts 199°
2026-04-30 20:22 -34.92712 177.33705 29470 ft 399 kts 199°
2026-04-30 20:22 -34.98061 177.31846 29473 ft 399 kts 200°
2026-04-30 20:23 -35.03394 177.29989 29473 ft 398 kts 199°
2026-04-30 20:23 -35.08696 177.28140 29482 ft 398 kts 200°
2026-04-30 20:24 -35.14029 177.26281 29480 ft 398 kts 199°
2026-04-30 20:24 -35.19361 177.24420 29481 ft 399 kts 200°
2026-04-30 20:25 -35.27353 177.21623 29489 ft 397 kts 199°
2026-04-30 20:26 -35.35320 177.18825 29492 ft 397 kts 199°
2026-04-30 20:26 -35.43254 177.16036 29494 ft 397 kts 199°
2026-04-30 20:27 -35.53884 177.12290 29502 ft 397 kts 199°
2026-04-30 20:28 -35.64497 177.08542 29507 ft 396 kts 198°
2026-04-30 20:30 -35.77746 177.03848 29515 ft 396 kts 198°
2026-04-30 20:31 -35.93606 176.98206 29526 ft 395 kts 199°
2026-04-30 20:32 -36.06817 176.93483 29529 ft 396 kts 198°
2026-04-30 20:33 -36.14789 176.90630 29531 ft 397 kts 198°
2026-04-30 20:34 -36.22717 176.87785 29541 ft 397 kts 199°
2026-04-30 20:35 -36.30656 176.84931 29538 ft 396 kts 198°
2026-04-30 20:35 -36.38616 176.82062 29536 ft 397 kts 198°
2026-04-30 20:36 -36.43901 176.80152 29548 ft 397 kts 198°
2026-04-30 20:37 -36.51884 176.77265 29550 ft 400 kts 197°
2026-04-30 20:37 -36.57237 176.75326 29550 ft 401 kts 197°
2026-04-30 20:38 -36.62561 176.73394 29549 ft 401 kts 197°
2026-04-30 20:38 -36.67934 176.71442 29550 ft 402 kts 197°
2026-04-30 20:39 -36.76026 176.68497 29558 ft 406 kts 196°
2026-04-30 20:40 -36.84125 176.65542 29560 ft 406 kts 196°
2026-04-30 20:40 -36.89547 176.63560 29561 ft 406 kts 196°
2026-04-30 20:41 -36.97716 176.60569 29563 ft 410 kts 195°
2026-04-30 20:41 -37.03216 176.58550 29568 ft 413 kts 195°
2026-04-30 20:42 -37.08746 176.56518 29565 ft 413 kts 195°
2026-04-30 20:43 -37.16985 176.53486 29566 ft 413 kts 195°
2026-04-30 20:43 -37.22490 176.51455 29574 ft 415 kts 194°
2026-04-30 20:44 -37.30803 176.48383 29577 ft 415 kts 194°
2026-04-30 20:45 -37.41874 176.44281 29582 ft 416 kts 194°
2026-04-30 20:45 -37.47431 176.42217 29584 ft 417 kts 193°
2026-04-30 20:46 -37.58568 176.38071 29590 ft 417 kts 194°
2026-04-30 20:47 -37.66918 176.34954 29585 ft 417 kts 193°
2026-04-30 20:48 -37.75275 176.31828 29590 ft 418 kts 193°
2026-04-30 20:48 -37.80813 176.29751 29597 ft 418 kts 193°
2026-04-30 20:49 -37.86385 176.27660 29604 ft 418 kts 193°
2026-04-30 20:50 -37.94902 176.26942 29609 ft 407 kts 169°
2026-04-30 20:50 -38.00459 176.28309 29606 ft 406 kts 165°
2026-04-30 20:51 -38.05963 176.29926 29613 ft 406 kts 165°
2026-04-30 20:51 -38.11609 176.30559 29613 ft 411 kts 182°
2026-04-30 20:51 -38.14436 176.29958 29623 ft 413 kts 190°
2026-04-30 20:52 -38.19999 176.28094 29619 ft 413 kts 194°
2026-04-30 20:53 -38.28236 176.24911 29620 ft 413 kts 194°
2026-04-30 20:53 -38.33705 176.22812 29622 ft 412 kts 194°
2026-04-30 20:54 -38.41960 176.19693 29628 ft 412 kts 194°
2026-04-30 20:55 -38.50246 176.16570 29630 ft 415 kts 194°
2026-04-30 20:55 -38.55792 176.14473 29630 ft 415 kts 194°
2026-04-30 20:56 -38.64093 176.11323 29630 ft 413 kts 194°
2026-04-30 20:57 -38.72325 176.08193 29632 ft 413 kts 194°
2026-04-30 20:57 -38.77793 176.05939 29633 ft 413 kts 196°
2026-04-30 20:58 -38.85912 176.02188 29634 ft 412 kts 197°
2026-04-30 20:58 -38.91304 175.99686 29479 ft 411 kts 197°
2026-04-30 20:59 -38.96674 175.97214 28595 ft 405 kts 197°
2026-04-30 20:59 -38.99301 175.96008 27633 ft 407 kts 197°
2026-04-30 21:00 -39.04647 175.93557 26154 ft 407 kts 197°
2026-04-30 21:00 -39.09946 175.91120 25015 ft 402 kts 197°
2026-04-30 21:01 -39.15179 175.88709 23808 ft 396 kts 197°
2026-04-30 21:01 -39.17769 175.87514 23238 ft 393 kts 197°
2026-04-30 21:01 -39.19474 175.86727 22867 ft 391 kts 197°
2026-04-30 21:02 -39.20129 175.86425 22715 ft 390 kts 197°
2026-04-30 21:03 -39.20811 175.86110 22577 ft 389 kts 197°
2026-04-30 21:03 -39.23354 175.84935 22005 ft 386 kts 197°
2026-04-30 21:03 -39.25876 175.83770 21454 ft 383 kts 197°
2026-04-30 21:03 -39.28373 175.82615 20914 ft 380 kts 197°
2026-04-30 21:04 -39.30850 175.81468 20382 ft 376 kts 197°
2026-04-30 21:04 -39.33303 175.80332 19830 ft 373 kts 197°
2026-04-30 21:04 -39.38180 175.78072 18709 ft 370 kts 197°
2026-04-30 21:05 -39.40568 175.76964 18146 ft 367 kts 197°
2026-04-30 21:05 -39.42973 175.75847 17610 ft 364 kts 197°
2026-04-30 21:05 -39.45343 175.74745 17072 ft 361 kts 197°
2026-04-30 21:05 -39.46904 175.74018 16735 ft 359 kts 197°
2026-04-30 21:06 -39.49243 175.72929 16194 ft 355 kts 197°
2026-04-30 21:06 -39.51555 175.71852 15653 ft 352 kts 197°
2026-04-30 21:06 -39.53850 175.70782 15132 ft 348 kts 197°
2026-04-30 21:06 -39.56126 175.69722 14351 ft 349 kts 197°
2026-04-30 21:07 -39.58422 175.68652 13492 ft 350 kts 197°
2026-04-30 21:07 -39.60703 175.67584 12886 ft 344 kts 197°
2026-04-30 21:07 -39.62911 175.66472 12384 ft 337 kts 199°
2026-04-30 21:07 -39.65078 175.65346 11872 ft 334 kts 199°
2026-04-30 21:08 -39.67235 175.64217 11370 ft 333 kts 199°
2026-04-30 21:08 -39.69375 175.63095 10875 ft 331 kts 199°
2026-04-30 21:08 -39.71476 175.61992 10630 ft 318 kts 199°
2026-04-30 21:08 -39.73477 175.60940 10543 ft 301 kts 199°
2026-04-30 21:09 -39.75355 175.59954 10370 ft 294 kts 199°
2026-04-30 21:09 -39.77249 175.58963 9929 ft 292 kts 199°
2026-04-30 21:09 -39.79123 175.57981 9546 ft 289 kts 199°
2026-04-30 21:09 -39.80990 175.57024 9177 ft 287 kts 196°
2026-04-30 21:10 -39.82926 175.56543 8794 ft 281 kts 178°
2026-04-30 21:10 -39.84858 175.56712 8418 ft 277 kts 171°
2026-04-30 21:10 -39.86765 175.57049 8059 ft 276 kts 169°
2026-04-30 21:10 -39.88661 175.57410 7703 ft 274 kts 169°
2026-04-30 21:11 -39.90546 175.57767 7346 ft 273 kts 169°
2026-04-30 21:11 -39.92424 175.58117 6981 ft 272 kts 170°
2026-04-30 21:11 -39.94292 175.58463 6602 ft 271 kts 170°
2026-04-30 21:11 -39.96153 175.58806 6245 ft 270 kts 170°
2026-04-30 21:12 -39.98009 175.59146 5895 ft 269 kts 170°
2026-04-30 21:12 -39.99862 175.59485 5542 ft 268 kts 170°
2026-04-30 21:12 -40.01709 175.59822 5169 ft 267 kts 171°
2026-04-30 21:12 -40.03551 175.60160 4810 ft 267 kts 171°
2026-04-30 21:13 -40.05374 175.60493 4458 ft 268 kts 171°
2026-04-30 21:13 -40.07216 175.60831 4101 ft 267 kts 171°
2026-04-30 21:13 -40.09059 175.61165 3734 ft 267 kts 171°
2026-04-30 21:13 -40.10891 175.61498 3361 ft 265 kts 171°
2026-04-30 21:14 -40.12714 175.61833 3006 ft 263 kts 171°
2026-04-30 21:14 -40.14527 175.62167 2647 ft 261 kts 171°
2026-04-30 21:14 -40.16321 175.62438 2508 ft 259 kts 177°
2026-04-30 21:14 -40.18094 175.62058 2495 ft 262 kts 201°
2026-04-30 21:15 -40.19573 175.60659 2502 ft 266 kts 226°
2026-04-30 21:15 -40.20737 175.58798 2494 ft 257 kts 233°
2026-04-30 21:15 -40.21675 175.56882 2395 ft 244 kts 246°
2026-04-30 21:15 -40.22150 175.54834 2237 ft 225 kts 258°
2026-04-30 21:16 -40.22444 175.52912 2102 ft 207 kts 260°
2026-04-30 21:16 -40.22700 175.51109 1886 ft 197 kts 260°
2026-04-30 21:16 -40.22944 175.49390 1652 ft 187 kts 261°
2026-04-30 21:16 -40.22940 175.47758 1433 ft 179 kts 282°
2026-04-30 21:17 -40.22620 175.46256 1200 ft 159 kts 289°
2026-04-30 21:17 -40.22274 175.44950 998 ft 150 kts 290°
2026-04-30 21:17 -40.21917 175.43679 806 ft 148 kts 291°
2026-04-30 21:17 -40.21583 175.42420 633 ft 146 kts 290°
2026-04-30 21:18 -40.21248 175.41178 401 ft 140 kts 293°
2026-04-30 21:18 -40.20931 175.39973 215 ft 138 kts 291°
2026-04-30 21:18 -40.20665 175.38958 163 ft 83 kts 288°
2026-04-30 21:18 -40.20525 175.38432 164 ft 48 kts 286°
2026-04-30 21:19 -40.20361 175.38171 164 ft 32 kts 333°
2026-04-30 21:19 -40.20198 175.38066 162 ft 20 kts 334°
2026-04-30 21:19 -40.20109 175.38052 162 ft 9 kts 38°
2026-04-30 21:19 -40.20057 175.38130 162 ft 12 kts 51°
2026-04-30 21:20 -40.20003 175.38221 162 ft 13 kts 54°
2026-04-30 21:20 -40.19949 175.38314 161 ft 11 kts 44°
2026-04-30 21:20 -40.19907 175.38315 161 ft 7 kts 354°
2026-04-30 21:20 -40.19883 175.38291 161 ft 3 kts 267°
2026-04-30 21:21 -40.19893 175.38275 161 ft 0 kts 230°